Theta_e
321 316 314 314 317 316 315 313 312 318 323 321 319 319 321 325 326 327 329 329 331 334 335 336 336 335 335 334 340 341 343 348 346 342 337 335 335 336 336 336 337 338 337 338
317 313 316 317 316 315 314 313 313 318 322 321 319 318 321 323 326 327 327 329 332 332 332 334 337 336 333 332 337 340 342 347 344 340 338 339 338 338 335 335 337 338 338 339
314 316 316 315 314 313 314 312 313 314 320 321 319 316 319 323 326 327 328 332 331 331 332 332 336 337 334 333 337 340 343 345 344 342 339 336 336 337 332 332 335 337 337 338
315 317 314 314 313 314 311 316 316 315 314 309 319 306 316 319 321 323 326 326 329 331 334 335 337 338 339 336 339 340 343 344 344 344 338 337 331 330 332 332 335 338 340 339
313 313 313 312 313 316 313 317 317 316 315 314 314 310 315 320 318 321 325 327 329 332 333 333 337 338 340 339 337 340 342 343 342 342 340 336 334 332 333 332 337 341 341 339
315 317 315 315 318 316 319 317 317 317 314 306 313 310 310 314 317 320 325 327 328 330 331 334 337 340 341 341 338 338 339 341 341 340 340 338 336 331 333 333 333 335 337 336
313 313 316 317 315 319 318 316 307 304 304 302 314 310 314 319 321 321 322 324 328 330 331 333 335 336 339 341 341 338 338 338 340 339 339 338 335 334 337 336 336 335 333 335
307 305 313 316 315 314 316 316 307 299 300 302 313 307 313 322 326 327 327 326 330 331 332 333 334 336 337 338 343 341 338 338 339 339 339 340 337 334 337 337 336 336 335 336
309 307 315 316 319 318 315 311 317 310 311 305 310 313 319 323 323 325 325 328 330 331 332 333 336 338 338 340 339 343 341 340 340 341 342 342 342 341 339 338 339 339 342 339
313 307 312 316 319 319 316 319 310 311 301 299 305 306 310 316 319 322 324 327 329 330 330 332 333 336 337 339 342 343 343 342 344 345 344 344 343 343 343 342 338 340 341 341
315 312 310 314 313 312 315 313 314 314 310 302 300 304 319 320 323 323 325 327 328 327 328 329 330 331 334 333 336 341 342 341 343 344 344 344 344 343 344 343 338 339 342 342
316 316 308 309 318 319 317 315 315 309 307 310 308 306 324 325 326 327 327 328 328 328 327 326 328 331 332 333 335 339 343 343 343 342 342 342 342 341 342 343 338 339 342 343
318 314 306 309 315 318 315 317 317 316 317 308 305 307 324 326 326 327 326 327 326 326 327 327 328 330 332 334 336 339 342 342 342 339 338 338 339 341 343 342 340 342 340 342
321 319 312 304 308 312 311 313 314 315 309 308 308 311 320 323 325 327 327 327 325 324 326 327 329 331 332 334 336 339 340 338 339 338 338 339 340 340 341 342 341 342 342 339
324 315 315 312 313 313 311 310 312 312 312 309 310 313 319 325 326 327 327 325 323 323 325 327 330 333 332 333 335 338 338 339 338 337 334 334 337 338 341 340 340 341 337 334
325 316 316 312 314 313 310 312 313 314 314 314 315 315 325 328 328 327 324 324 321 323 325 327 330 333 333 333 335 337 337 337 338 335 333 335 334 336 338 340 340 340 335 330
323 320 315 307 313 312 308 312 313 314 316 316 313 319 327 326 325 324 323 324 323 324 326 328 331 333 334 334 338 336 336 337 336 334 332 331 331 331 331 332 335 336 337 338
322 321 317 309 313 302 313 319 318 316 317 320 322 323 326 327 327 325 325 325 325 326 326 328 331 331 333 337 337 337 336 337 336 330 328 328 328 326 324 328 329 331 332 333
327 322 314 308 307 310 311 317 316 316 315 323 323 324 327 328 326 325 327 327 327 329 331 332 333 332 338 337 336 336 335 334 332 328 328 326 325 325 324 323 326 328 328 328
322 326 316 311 303 300 311 320 324 325 310 323 326 327 327 328 318 321 328 327 329 332 334 332 333 335 336 337 338 335 333 332 329 328 327 326 325 325 324 325 327 329 328 326
315 315 309 307 306 308 317 323 328 311 315 327 330 330 330 327 326 331 329 329 331 333 334 334 334 334 336 338 338 335 333 331 333 331 327 326 326 326 324 327 328 328 327 326
311 310 309 310 306 303 322 323 317 329 332 331 332 333 332 334 331 330 330 332 333 333 334 334 333 334 335 336 336 333 331 335 333 329 326 326 325 324 323 325 326 325 325 324
310 316 313 313 311 326 329 328 333 334 334 333 334 335 335 333 332 329 330 333 334 334 334 332 333 332 333 334 335 332 334 333 331 329 325 324 324 324 323 325 325 322 324 321
320 322 317 319 318 326 329 332 333 334 333 335 336 337 336 333 333 331 332 334 335 334 334 334 334 332 329 333 333 334 335 334 332 329 324 325 324 322 325 323 322 320 320 320
320 323 320 321 324 325 327 329 331 331 334 335 335 336 336 334 333 333 333 335 336 335 334 334 334 331 329 332 333 335 334 333 331 329 326 325 322 324 324 324 324 322 324 315
324 320 317 313 326 324 325 328 328 329 330 332 334 335 336 336 334 334 334 336 337 336 335 334 335 332 331 332 332 333 334 332 330 329 327 323 321 322 322 322 322 305 304 301
Wind_Speed
2 11 6 9 7 7 5 7 8 1 2 7 4 4 3 3 3 6 5 3 4 2 4 3 3 2 3 4 8 11 12 11 9 7 7 6 6 5 6 6 7 7 7 7
9 8 5 7 3 5 5 9 9 3 2 7 5 5 4 4 6 3 1 5 1 4 7 5 3 2 4 3 5 7 9 11 8 6 5 2 2 2 5 5 6 8 8 8
10 6 1 6 7 6 9 8 11 8 1 2 9 6 9 8 6 4 3 4 3 3 2 3 2 1 1 3 5 7 10 12 12 9 6 5 3 4 6 6 7 8 10 10
9 3 5 10 8 6 14 6 6 4 8 8 7 4 9 4 1 2 2 4 2 2 1 4 3 5 5 5 8 10 12 12 11 11 8 7 5 5 4 5 5 4 9 10
2 5 7 11 6 7 7 5 4 4 6 7 3 12 13 5 6 4 3 4 3 2 3 4 2 4 5 6 8 10 9 10 10 12 10 8 8 5 6 6 4 7 6 9
12 0 6 4 5 1 5 4 5 4 5 10 6 7 11 9 7 7 8 7 5 5 3 4 2 3 5 6 8 9 11 11 12 12 12 11 10 7 7 8 6 6 6 8
9 8 5 4 4 5 5 9 3 4 2 7 3 7 8 8 4 4 4 6 7 6 8 9 7 8 5 7 7 8 11 12 13 14 13 12 11 9 9 9 8 5 7 7
6 10 9 3 5 8 5 6 8 10 6 1 5 4 9 6 4 3 2 4 8 10 10 11 13 11 10 7 5 9 10 11 13 13 11 9 9 8 7 9 7 7 6 6
4 3 7 2 2 5 6 7 5 7 4 11 2 6 6 9 7 5 7 8 10 10 10 11 12 10 10 7 2 8 9 9 8 9 8 8 7 10 8 9 8 8 7 6
3 9 3 6 4 4 7 3 6 8 7 8 2 5 7 10 7 5 6 9 9 8 10 9 10 11 9 8 5 5 7 8 7 7 8 6 6 8 9 8 7 10 7 7
10 6 4 6 6 7 5 8 4 6 6 10 7 6 6 8 6 5 7 7 6 7 8 9 9 10 10 12 10 6 5 5 5 5 7 6 7 8 8 8 8 8 8 10
8 5 8 3 5 2 5 5 4 8 3 4 8 9 5 7 5 5 6 5 6 6 9 9 9 10 10 11 11 8 5 5 5 4 6 6 6 8 7 8 5 6 7 8
8 6 8 9 11 7 7 4 1 3 5 11 10 4 4 9 6 4 4 4 4 6 8 8 9 9 9 10 10 9 7 7 7 6 6 4 5 6 7 7 6 7 5 8
5 4 8 10 10 6 4 7 5 6 7 9 10 4 8 9 8 6 3 1 6 6 7 8 8 9 8 9 9 7 7 7 7 6 6 6 6 6 7 6 6 6 7 4
5 7 6 4 4 6 7 7 6 9 11 9 14 10 5 9 8 5 2 2 3 5 6 8 8 8 9 9 7 6 6 7 6 6 6 7 6 5 6 6 5 5 4 3
5 4 5 7 5 7 9 9 9 11 12 12 12 12 3 7 6 6 3 2 3 5 7 7 6 7 9 8 7 5 6 6 6 5 4 6 7 7 8 7 4 3 4 3
5 3 5 10 1 6 10 12 10 9 8 10 11 8 9 10 8 5 3 2 3 4 6 7 6 7 7 6 3 5 5 4 4 4 5 6 6 7 7 7 7 5 3 3
5 5 3 4 4 10 4 1 4 9 12 10 11 7 8 8 6 5 3 2 2 3 5 6 6 6 5 4 3 4 4 2 2 4 5 6 6 6 7 6 7 6 5 5
5 6 3 6 8 7 12 6 5 7 8 5 9 7 9 5 5 7 4 3 2 2 4 5 5 4 2 3 4 5 4 3 3 4 4 4 6 6 6 7 6 5 5 5
5 5 7 4 7 10 11 5 3 3 10 5 9 9 11 9 9 5 7 5 5 3 3 3 1 2 3 3 4 6 5 5 2 3 3 4 5 6 7 7 6 5 5 6
7 5 8 5 7 8 8 5 7 8 3 3 8 10 12 11 6 6 5 6 5 5 4 3 3 4 3 3 4 6 5 4 2 3 4 5 5 7 5 6 5 5 6 8
7 7 7 3 7 11 4 6 8 8 3 2 6 10 13 12 6 8 7 7 8 7 6 6 5 5 3 5 6 6 4 1 3 4 5 6 6 6 6 6 6 7 6 7
6 4 6 4 8 3 1 12 4 6 9 4 6 9 12 12 12 10 10 10 9 9 7 7 5 5 4 4 5 6 3 4 3 4 4 5 6 5 5 5 5 7 4 6
5 4 6 3 7 5 8 7 11 11 12 11 7 9 11 13 12 11 10 10 10 10 8 7 6 6 5 5 4 5 4 4 5 5 4 4 5 4 4 6 5 5 6 7
5 7 6 7 11 8 4 6 8 11 11 11 14 12 13 13 13 12 11 12 11 10 9 7 7 6 6 5 4 5 5 4 5 4 5 5 5 3 5 4 5 6 6 5
8 11 9 10 7 5 9 9 14 12 11 9 9 11 13 14 15 14 13 12 12 11 10 9 9 8 8 6 6 5 4 5 5 5 5 3 5 5 5 5 6 5 3 5
Wind_Direction
109 282 19 0 359 353 328 302 301 82 53 294 10 314 104 151 200 174 206 189 218 273 129 138 84 63 75 108 159 174 178 176 181 181 191 196 219 218 227 226 216 208 227 217
234 242 25 334 338 306 308 302 276 177 142 285 9 335 69 141 116 145 184 198 138 137 168 158 115 79 53 130 173 168 170 166 189 187 205 254 298 240 249 222 215 226 216 225
283 344 5 294 289 268 274 311 311 316 90 186 304 166 120 126 140 134 147 177 147 57 237 181 160 26 211 174 163 171 178 179 183 186 177 176 158 220 240 235 221 214 219 218
273 70 259 287 273 305 294 359 276 260 273 357 359 341 112 148 101 186 158 140 61 44 334 223 217 208 211 182 167 179 189 186 190 192 189 195 214 212 280 256 219 226 219 215
274 269 266 276 12 317 338 305 239 219 264 293 147 279 104 163 138 82 87 83 78 17 356 353 260 227 216 165 180 190 188 196 208 196 213 193 214 203 235 245 229 234 207 226
274 338 267 8 33 310 130 163 197 200 273 260 79 298 106 78 46 69 67 63 58 33 347 9 345 266 242 201 190 187 188 199 208 214 203 207 211 217 217 222 228 217 205 203
197 221 142 213 167 158 250 220 213 256 297 292 120 250 48 78 56 18 34 53 47 15 22 7 11 352 332 215 216 208 192 204 212 218 217 208 215 211 233 219 230 222 215 214
261 167 177 149 305 339 240 299 310 305 289 23 154 259 93 77 70 118 120 54 38 19 16 16 26 16 9 359 214 217 205 214 216 223 227 224 226 234 230 223 248 227 230 219
225 222 118 41 161 288 119 245 17 289 205 265 55 145 138 141 115 122 81 55 44 44 45 40 45 32 26 23 247 230 234 235 245 248 247 236 223 241 232 229 225 232 232 238
269 275 101 121 186 114 292 64 225 199 275 288 143 238 119 174 134 100 70 66 69 52 43 38 34 32 24 19 21 289 264 273 292 282 268 250 240 233 233 234 233 244 232 229
242 258 191 203 204 339 178 206 247 298 294 311 292 74 77 113 100 93 90 85 70 51 33 21 25 30 19 16 23 359 335 320 321 312 306 279 267 260 244 224 221 237 228 235
196 253 250 299 80 300 296 330 276 285 151 241 302 298 86 122 122 123 111 95 61 42 20 14 21 19 21 16 9 38 25 3 11 345 340 314 284 264 255 235 197 249 238 235
170 208 243 197 181 180 238 165 264 289 279 270 294 43 127 131 146 151 129 109 92 5 26 16 9 15 23 8 8 15 30 31 1 350 344 349 289 265 267 255 203 235 236 248
201 206 262 301 354 332 206 209 216 244 277 321 266 309 148 164 167 162 152 21 24 7 20 18 0 8 7 8 9 20 39 13 6 4 3 1 339 309 288 282 227 236 232 237
230 240 234 274 262 242 280 268 212 246 280 276 306 318 149 184 180 167 153 25 351 1 2 6 2 355 352 6 5 32 29 17 4 9 23 30 17 351 315 296 267 280 255 237
188 243 261 253 228 241 251 263 260 271 281 281 274 273 138 162 173 186 173 238 320 5 355 354 348 352 354 356 356 29 25 17 352 7 12 14 11 15 13 12 359 136 187 197
205 172 231 266 161 254 248 260 285 275 274 265 269 338 152 176 202 194 187 247 333 344 340 346 344 353 352 352 346 17 23 348 351 345 2 15 23 42 32 32 30 11 321 313
186 197 239 291 215 244 357 77 284 281 282 266 255 266 192 192 184 197 191 328 312 325 332 337 346 347 350 333 358 347 347 293 349 2 16 35 34 35 25 27 25 24 17 358
275 230 186 247 240 284 284 180 225 232 292 232 246 207 192 175 195 212 226 214 269 308 315 327 355 343 307 293 337 315 307 287 327 30 26 18 12 359 3 8 7 357 341 330
191 254 251 163 275 280 306 124 180 196 261 141 205 201 196 189 231 136 169 199 207 225 263 288 298 336 269 265 306 292 303 270 355 5 346 0 7 349 343 345 333 328 319 291
174 209 239 245 276 287 339 147 166 239 41 121 192 204 201 210 273 108 164 192 210 215 226 213 234 283 277 244 260 270 275 265 341 297 326 336 347 336 337 329 313 302 298 308
235 236 233 213 266 281 58 157 244 5 341 302 211 208 210 218 201 193 195 207 209 213 222 212 225 239 232 228 241 274 276 321 273 323 318 336 335 323 341 323 313 309 305 294
235 290 310 281 311 79 206 256 268 294 299 324 288 232 222 221 223 216 219 216 220 222 226 232 228 236 226 228 259 285 304 265 276 296 324 322 322 325 326 317 324 293 290 295
179 191 245 280 265 269 277 284 263 270 266 284 284 271 235 236 237 232 227 224 226 221 222 219 221 234 232 218 240 260 275 266 267 286 298 309 294 337 328 310 319 319 331 335
339 159 239 254 264 293 118 25 359 331 301 273 267 270 246 241 247 242 239 230 233 228 215 218 220 224 225 205 238 237 244 241 250 257 275 278 286 296 297 295 330 335 21 12
201 253 238 276 25 310 301 332 325 311 311 305 284 264 245 248 248 248 242 238 229 222 217 207 215 215 223 223 225 220 219 221 245 251 246 330 309 315 317 319 330 200 176 174